Flag for U.S.A. Weather past 2 weeks in St. Augustine, Florida, U.S.A.

Now
67 °F

Fog.


Feels Like: 67 °F
Forecast: 68 / 80 °F
Wind: 3 mph from Southwest

Location: St. Augustine Airport

Current Time: Apr 18, 2015 at 1:09:07 AM

Latest Report: Apr 17, 2015 at 11:58 PM


Visibility: 6 mi

Pressure: 30.03 "Hg

Humidity: 97%

Dew point: 66 °F

Location of St. AugustineLocation

Historic Weather in St. Augustine — Graph

°F

St. Augustine temperature yesterday

Maximum temperature yesterday: 70 °F (at 4:58 PM)
Minimum temperature yesterday: 66 °F (at 1:58 AM)
Average temperature yesterday: 68 °F

Past Weeks' High & Low Weather Summary

 TemperatureHumidityPressure
High84 °F (Apr 4, 2:58 PM)100% (Apr 5, 12:02 AM)30.24 "Hg (Apr 5, 12:02 AM)
Low63 °F (Apr 3, 4:58 AM)51% (Apr 4, 2:58 PM)30.01 "Hg (Apr 17, 8:58 PM)
Average72 °F86%30.13 "Hg
* Reported Apr 2 11:58 PM — Apr 17 11:58 PM, St. Augustine, Weather by CustomWeather, © 2015

Note: Actual official high and low records may vary slightly from our data, if they occured in-between our weather recording intervals... More about our weather records

Advertising

St. Augustine weather history for previous 24 hours

 ConditionsComfort  
Time TempWeatherWind HumidityBarometerVisibility
11:58 PM
Fri, Apr 17
67 °FFog.3 mph97%30.03 "Hg6 mi
10:58 PM68 °FClear.5 mph93%30.03 "Hg10 mi
9:58 PM70 °FPassing clouds.3 mph90%30.02 "Hg10 mi
8:58 PM69 °FPassing clouds.3 mph93%30.01 "Hg10 mi
7:58 PM69 °FPartly sunny.3 mph93%30.02 "Hg10 mi
6:58 PM69 °FFog.5 mph90%30.01 "Hg3 mi
5:58 PM70 °FFog.3 mph90%30.03 "Hg2 mi
5:02 PM70 °FMostly cloudy.6 mph88%30.03 "Hg10 mi
4:58 PM70 °FFog.5 mph87%30.03 "Hg2 mi
3:58 PM69 °FFog.6 mph90%30.04 "Hg2 mi
2:58 PM69 °FFog.6 mph90%30.05 "Hg2 mi
1:58 PM69 °FFog.6 mph90%30.08 "Hg2 mi
1:01 PM66 °FFog.5 mph94%30.10 "Hg5 mi
11:58 AM67 °FFog.8 mph97%30.12 "Hg3 mi
10:58 AM69 °FFog.6 mph93%30.12 "Hg3 mi
10:02 AM68 °FFog.7 mph94%30.12 "Hg4 mi
9:58 AM68 °FFog.7 mph93%30.12 "Hg2 mi
8:58 AM67 °FFog.3 mph93%30.11 "Hg2 mi
7:58 AM67 °FFog.5 mph93%30.10 "Hg4 mi
6:58 AM67 °FLow clouds.3 mph93%30.08 "Hg10 mi
5:58 AM67 °FLow clouds.5 mph93%30.07 "Hg10 mi
4:58 AM67 °FLow clouds.3 mph93%30.06 "Hg10 mi
3:58 AM66 °FLow clouds.5 mph96%30.08 "Hg10 mi
2:58 AM66 °FLow clouds.7 mph96%30.09 "Hg10 mi
1:58 AM66 °FLow clouds.8 mph96%30.11 "Hg10 mi
Weather by CustomWeather, © 2015

See weather overviewHow to use our weather pages